User: anonymous
Location: Albany
(35.0000°S, 118.0000°E)
Time: 20:43:29
(UTC-04:00)
Language:

Cosmos 1758 Rocket - Orbit

View from above orbital plane
View from above orbital plane
View from above satellite
View from above satellite

Ground track
Ground track

The orbit data is extracted from the following two-line orbital elements,

1 16792U 86046B   14113.81017351  .00000576  00000-0  68270-4 0  4456
2 16792 082.4853 204.4698 0026071 118.9944 020.4786 14.82532282504397
Epoch (UTC): 23 April 2014 19:26:38
Eccentricity: 0.0026071
inclination: 82.4853°
perigee height: 603 km
apogee height: 639 km
right ascension of ascending node: 204.4698°
argument of perigee: 118.9944°
revolutions per day: 14.82532282
mean anomaly at epoch: 20.4786°
orbit number at epoch: 50439

The dashed part of the orbit path shows where the satellite is in the earth's shadow,  

DLR